Temp
-6 -7 -7 -7 -7 -7 -7 -6 -7 -6 -6 -6 -6 -7 -7 -7 -7 -6 -6 -6 -6 -6 -7 -7 -7 -6 -6 -7 -6 -7 -6 -6 -7 -9 -8 -8 -8 -7 -6 -6 -7 -7 -7
-6 -6 -6 -8 -7 -7 -7 -7 -7 -7 -6 -7 -6 -7 -8 -7 -7 -6 -6 -7 -6 -7 -7 -8 -7 -7 -6 -6 -7 -6 -6 -6 -7 -8 -8 -9 -9 -8 -7 -8 -8 -7 -7
-7 -7 -7 -7 -7 -8 -7 -7 -7 -7 -6 -6 -7 -7 -7 -7 -7 -8 -7 -8 -9 -8 -7 -8 -8 -8 -7 -8 -7 -6 -6 -7 -7 -7 -8 -8 -8 -8 -8 -8 -8 -8 -8
-7 -7 -8 -8 -9 -6 -5 -7 -9 -7 -7 -7 -8 -7 -7 -7 -7 -7 -7 -8 -8 -8 -9 -8 -8 -9 -9 -8 -7 -7 -7 -7 -7 -7 -7 -7 -7 -7 -7 -7 -8 -8 -8
-7 -8 -8 -8 -7 -6 -7 -6 -7 -7 -8 -8 -9 -9 -8 -8 -7 -8 -8 -8 -8 -8 -8 -8 -8 -8 -9 -8 -8 -7 -7 -7 -7 -7 -7 -7 -7 -7 -7 -7 -7 -7 -7
-8 -8 -9 -9 -9 -8 -8 -9 -8 -8 -8 -8 -9 -8 -9 -8 -8 -8 -8 -8 -8 -8 -9 -9 -9 -8 -8 -8 -8 -7 -7 -7 -7 -7 -7 -7 -7 -6 -7 -7 -6 -6 -7
-8 -8 -8 -8 -8 -9 -9 -9 -9 -8 -8 -8 -9 -8 -8 -7 -7 -8 -8 -8 -8 -9 -9 -8 -9 -9 -8 -8 -8 -8 -8 -8 -8 -8 -8 -7 -7 -7 -7 -7 -7 -6 -6
-8 -8 -8 -9 -9 -9 -9 -9 -8 -9 -8 -9 -8 -7 -7 -7 -8 -8 -8 -8 -9 -9 -9 -9 -9 -8 -9 -8 -8 -9 -9 -9 -9 -8 -8 -8 -8 -8 -7 -7 -7 -7 -7
-9 -8 -8 -8 -9 -9 -9 -9 -9 -8 -8 -9 -8 -7 -7 -7 -8 -9 -9 -9 -9 -9 -9 -9 -9 -9 -8 -9 -9 -9 -9 -10 -9 -9 -9 -9 -8 -8 -8 -8 -8 -8 -8
-8 -9 -9 -9 -9 -9 -9 -10 -9 -9 -9 -9 -8 -8 -8 -9 -9 -9 -9 -10 -10 -9 -9 -9 -8 -9 -9 -9 -10 -10 -10 -10 -10 -10 -9 -8 -9 -9 -9 -9 -9 -8 -8
-8 -9 -9 -10 -9 -9 -9 -9 -9 -9 -10 -10 -10 -9 -9 -10 -10 -10 -10 -10 -10 -10 -10 -10 -10 -10 -10 -10 -9 -9 -9 -9 -9 -9 -9 -9 -9 -9 -9 -9 -9 -9 -9
-9 -9 -9 -10 -10 -10 -10 -10 -9 -10 -10 -10 -9 -10 -10 -10 -10 -11 -11 -10 -11 -10 -11 -11 -10 -10 -10 -10 -10 -10 -10 -9 -9 -9 -9 -9 -9 -9 -9 -9 -9 -9 -9
-11 -10 -10 -10 -10 -10 -10 -10 -10 -10 -10 -10 -10 -10 -10 -9 -9 -11 -11 -10 -10 -11 -11 -10 -10 -10 -10 -10 -10 -10 -10 -10 -10 -10 -10 -10 -10 -10 -10 -10 -10 -9 -9
-11 -11 -11 -11 -11 -11 -11 -10 -10 -10 -10 -10 -10 -10 -10 -10 -10 -10 -11 -11 -11 -11 -11 -11 -11 -11 -11 -11 -11 -11 -11 -11 -11 -11 -10 -10 -10 -11 -10 -11 -10 -11 -11
-11 -11 -12 -12 -11 -11 -11 -11 -11 -11 -11 -11 -11 -11 -11 -11 -11 -11 -11 -11 -11 -11 -11 -11 -11 -11 -11 -11 -11 -11 -11 -12 -11 -11 -11 -11 -11 -11 -11 -11 -11 -11 -11
-12 -12 -12 -12 -12 -12 -12 -12 -12 -12 -12 -12 -12 -11 -11 -11 -11 -11 -11 -11 -11 -11 -11 -11 -11 -11 -11 -11 -11 -12 -12 -12 -12 -12 -12 -12 -12 -12 -12 -12 -12 -12 -12
-12 -12 -13 -12 -12 -12 -12 -12 -12 -12 -12 -12 -12 -12 -12 -12 -12 -12 -12 -12 -12 -12 -12 -12 -12 -12 -11 -12 -12 -12 -12 -13 -13 -13 -13 -13 -13 -13 -12 -12 -13 -13 -13
-13 -12 -12 -12 -12 -12 -12 -12 -12 -12 -12 -12 -12 -13 -13 -13 -13 -14 -13 -14 -14 -14 -14 -13 -13 -13 -13 -13 -13 -13 -13 -13 -13 -13 -13 -13 -13 -13 -13 -13 -13 -13 -13
-13 -12 -13 -12 -12 -12 -13 -13 -13 -13 -13 -13 -13 -13 -13 -14 -14 -14 -14 -14 -14 -14 -14 -14 -14 -14 -14 -14 -14 -14 -14 -14 -14 -13 -14 -14 -14 -13 -13 -13 -13 -13 -14
-13 -13 -13 -13 -13 -13 -13 -14 -14 -14 -14 -14 -14 -15 -15 -15 -15 -15 -15 -15 -15 -15 -15 -15 -15 -15 -15 -14 -14 -14 -14 -14 -14 -14 -14 -14 -14 -14 -15 -15 -14 -14 -14
-13 -13 -14 -14 -14 -14 -14 -14 -14 -15 -15 -15 -15 -15 -15 -16 -15 -16 -16 -15 -15 -15 -15 -15 -14 -14 -15 -15 -15 -15 -15 -15 -15 -15 -16 -16 -16 -16 -15 -15 -15 -15 -15
-14 -14 -14 -14 -14 -14 -15 -15 -15 -15 -15 -16 -16 -16 -17 -17 -17 -17 -17 -16 -16 -16 -16 -16 -15 -15 -15 -15 -15 -16 -16 -16 -16 -16 -16 -16 -17 -17 -16 -16 -15 -16 -15
-15 -15 -15 -14 -15 -15 -15 -15 -15 -16 -16 -17 -18 -18 -19 -18 -18 -18 -17 -17 -17 -16 -16 -16 -16 -16 -16 -16 -16 -16 -16 -16 -16 -17 -17 -18 -19 -19 -17 -17 -16 -16 -15
-15 -15 -15 -15 -15 -15 -15 -16 -16 -16 -16 -17 -18 -19 -19 -19 -19 -18 -17 -18 -17 -17 -17 -17 -17 -16 -16 -16 -16 -16 -16 -16 -16 -17 -18 -18 -18 -18 -17 -17 -16 -16 -15
-15 -16 -16 -16 -16 -16 -16 -17 -16 -16 -16 -17 -18 -19 -19 -18 -18 -18 -18 -18 -18 -18 -18 -18 -17 -17 -17 -17 -16 -16 -16 -17 -17 -17 -17 -18 -17 -17 -16 -16 -16 -15 -15
-16 -16 -16 -16 -17 -17 -17 -17 -17 -17 -17 -17 -17 -18 -18 -19 -18 -18 -18 -18 -18 -18 -18 -18 -18 -18 -18 -18 -17 -17 -17 -17 -17 -17 -17 -17 -17 -17 -17 -16 -16 -16 -15
Height
5891 5889 5889 5889 5888 5886 5886 5888 5890 5891 5889 5886 5890 5890 5890 5890 5893 5894 5891 5890 5890 5890 5893 5893 5890 5891 5893 5891 5889 5892 5896 5897 5896 5894 5897 5887 5886 5887 5889 5890 5890 5892 5894
5886 5882 5881 5882 5880 5881 5881 5879 5877 5877 5880 5877 5878 5882 5881 5882 5884 5883 5880 5880 5882 5883 5884 5885 5885 5888 5881 5882 5884 5886 5887 5887 5885 5889 5890 5889 5885 5882 5883 5884 5882 5882 5885
5879 5876 5875 5869 5868 5869 5870 5871 5869 5867 5867 5868 5869 5869 5874 5875 5873 5872 5875 5874 5874 5874 5876 5876 5876 5878 5879 5879 5879 5881 5879 5879 5880 5883 5883 5881 5882 5881 5880 5877 5875 5876 5878
5873 5869 5867 5864 5853 5848 5852 5854 5856 5860 5861 5860 5860 5863 5864 5863 5862 5860 5864 5865 5865 5865 5867 5870 5870 5870 5873 5871 5874 5873 5873 5875 5875 5876 5875 5874 5871 5869 5870 5870 5871 5871 5871
5869 5861 5860 5850 5837 5824 5833 5846 5848 5847 5850 5850 5850 5854 5854 5855 5857 5855 5857 5856 5856 5857 5857 5858 5860 5862 5861 5864 5865 5864 5865 5866 5868 5868 5868 5867 5866 5865 5864 5866 5867 5867 5866
5861 5857 5853 5846 5835 5824 5832 5842 5821 5836 5838 5839 5837 5838 5845 5851 5847 5847 5847 5847 5847 5846 5846 5848 5849 5849 5850 5851 5855 5856 5856 5857 5857 5856 5857 5858 5858 5857 5856 5856 5855 5855 5858
5855 5857 5850 5845 5844 5838 5837 5843 5842 5840 5835 5833 5835 5835 5838 5839 5837 5836 5838 5839 5839 5838 5837 5835 5834 5837 5839 5841 5844 5847 5846 5845 5846 5847 5849 5850 5850 5847 5845 5844 5843 5842 5843
5849 5845 5844 5841 5841 5839 5837 5836 5834 5830 5832 5832 5832 5833 5830 5828 5826 5826 5827 5830 5830 5830 5827 5824 5826 5826 5826 5829 5832 5834 5834 5834 5834 5835 5838 5838 5836 5835 5833 5833 5834 5831 5832
5839 5837 5835 5834 5832 5831 5829 5826 5824 5822 5823 5825 5827 5823 5821 5820 5818 5818 5820 5820 5819 5820 5819 5815 5816 5816 5814 5817 5822 5821 5824 5823 5824 5824 5825 5825 5824 5823 5822 5820 5821 5818 5821
5830 5828 5827 5825 5824 5823 5821 5819 5819 5819 5819 5818 5816 5815 5813 5814 5813 5813 5813 5813 5812 5810 5809 5808 5807 5804 5805 5809 5809 5810 5811 5811 5811 5810 5810 5810 5809 5809 5809 5807 5806 5805 5805
5822 5818 5816 5817 5816 5815 5814 5813 5811 5811 5810 5809 5807 5807 5808 5808 5807 5805 5804 5804 5804 5801 5800 5799 5801 5802 5800 5800 5801 5799 5800 5800 5799 5798 5798 5797 5796 5794 5793 5791 5790 5790 5791
5812 5811 5809 5806 5805 5805 5805 5803 5802 5802 5802 5802 5801 5800 5799 5798 5797 5796 5795 5795 5793 5792 5792 5792 5790 5790 5789 5788 5788 5787 5786 5786 5785 5785 5784 5783 5782 5781 5781 5779 5777 5777 5776
5801 5801 5801 5799 5797 5796 5796 5795 5794 5793 5792 5792 5791 5790 5789 5789 5788 5787 5786 5783 5782 5782 5782 5781 5780 5778 5777 5776 5774 5773 5772 5772 5771 5769 5770 5770 5769 5766 5765 5763 5762 5760 5759
5791 5790 5790 5789 5787 5785 5785 5784 5783 5783 5782 5781 5781 5780 5778 5776 5777 5776 5773 5772 5772 5770 5770 5768 5767 5766 5764 5763 5761 5760 5759 5756 5753 5752 5753 5753 5750 5747 5746 5744 5744 5743 5743
5781 5781 5779 5779 5779 5777 5776 5775 5774 5773 5772 5771 5769 5768 5767 5765 5764 5763 5763 5761 5759 5758 5756 5754 5753 5750 5749 5747 5745 5743 5741 5738 5736 5734 5735 5734 5730 5729 5728 5726 5724 5722 5722
5772 5772 5770 5770 5769 5768 5766 5765 5763 5762 5761 5760 5758 5756 5755 5754 5752 5749 5747 5747 5745 5743 5740 5738 5735 5733 5732 5730 5726 5725 5722 5720 5717 5715 5714 5714 5713 5711 5710 5708 5706 5705 5705
5762 5761 5761 5761 5761 5760 5758 5756 5753 5751 5748 5745 5742 5741 5738 5737 5734 5732 5731 5729 5726 5725 5723 5721 5718 5716 5715 5713 5710 5706 5705 5702 5701 5699 5696 5695 5693 5692 5691 5690 5688 5687 5688
5755 5754 5752 5751 5749 5747 5746 5742 5740 5737 5734 5732 5730 5726 5722 5719 5715 5713 5711 5709 5708 5705 5703 5702 5699 5698 5697 5695 5693 5690 5688 5687 5684 5683 5680 5678 5675 5674 5674 5673 5671 5670 5668
5745 5743 5742 5739 5738 5737 5734 5730 5727 5723 5721 5717 5714 5712 5709 5707 5702 5698 5695 5694 5692 5689 5687 5685 5683 5680 5679 5677 5675 5673 5670 5668 5665 5663 5661 5659 5656 5654 5654 5653 5653 5652 5652
5735 5733 5732 5730 5727 5725 5723 5721 5718 5714 5711 5707 5703 5699 5695 5692 5691 5688 5684 5682 5679 5677 5675 5673 5670 5666 5664 5661 5658 5655 5651 5647 5644 5641 5638 5636 5633 5632 5632 5631 5632 5634 5634
5726 5725 5723 5721 5719 5716 5712 5708 5705 5702 5698 5693 5688 5684 5681 5676 5674 5671 5668 5668 5666 5664 5660 5658 5654 5651 5647 5643 5640 5636 5632 5628 5623 5619 5616 5613 5611 5611 5611 5614 5615 5617 5618
5716 5714 5713 5711 5709 5706 5703 5699 5695 5690 5685 5679 5672 5668 5663 5661 5660 5657 5656 5655 5653 5650 5646 5643 5640 5637 5633 5628 5624 5620 5616 5613 5608 5604 5600 5595 5593 5593 5595 5597 5600 5602 5604
5708 5706 5703 5702 5699 5696 5693 5689 5685 5680 5673 5664 5656 5652 5649 5647 5647 5647 5646 5644 5642 5639 5636 5632 5627 5623 5619 5616 5613 5610 5606 5602 5598 5593 5588 5583 5581 5581 5582 5585 5587 5590 5592
5701 5699 5696 5693 5690 5686 5683 5679 5676 5671 5666 5659 5652 5646 5641 5641 5640 5639 5639 5637 5634 5631 5626 5621 5616 5612 5609 5606 5603 5601 5597 5593 5589 5586 5583 5579 5576 5575 5575 5576 5577 5578 5580
5695 5691 5688 5685 5682 5679 5676 5672 5668 5664 5660 5654 5649 5643 5641 5638 5636 5634 5632 5629 5627 5624 5619 5615 5610 5605 5601 5599 5596 5593 5589 5585 5582 5579 5575 5573 5570 5568 5567 5567 5567 5568 5569
5686 5684 5681 5679 5676 5673 5670 5666 5663 5660 5657 5651 5646 5642 5639 5635 5632 5630 5628 5626 5623 5619 5615 5611 5607 5603 5598 5593 5589 5585 5582 5578 5575 5572 5569 5566 5564 5561 5560 5559 5559 5559 5560
Wind_Speed
22 20 22 26 32 31 29 30 28 29 30 31 24 24 24 24 24 26 25 23 25 25 25 28 31 29 30 27 21 19 21 24 23 19 24 34 36 34 31 32 31 27 27
23 25 29 35 32 38 33 32 32 33 32 31 31 27 28 28 26 25 24 23 25 25 25 29 33 38 16 21 22 24 27 28 26 25 28 29 30 32 31 33 32 26 25
29 30 29 36 48 30 37 37 38 39 38 34 32 32 27 25 25 21 19 23 27 29 29 31 34 36 35 28 30 30 30 28 29 30 28 28 27 27 31 29 27 25 23
34 36 34 42 52 62 40 41 37 38 38 34 30 27 26 27 21 22 25 28 28 30 39 36 38 38 37 39 36 35 36 33 35 33 31 30 30 31 31 31 30 29 31
35 37 40 50 54 39 25 40 36 37 36 34 30 30 30 32 30 29 29 33 33 35 35 40 44 42 42 42 41 43 41 39 39 34 34 33 33 34 35 34 34 35 36
34 37 39 40 49 34 18 24 22 28 38 35 34 37 34 33 34 39 36 38 38 39 39 38 42 50 47 48 47 47 47 44 42 38 38 38 37 39 39 39 40 41 39
36 34 38 36 36 33 29 22 30 25 28 28 21 18 25 26 30 33 35 36 36 31 39 45 44 48 55 51 50 49 51 49 46 44 42 41 39 43 42 43 46 48 47
33 36 34 35 33 30 31 25 21 22 23 17 24 27 21 25 26 31 36 41 35 32 35 38 40 48 55 59 48 54 51 47 44 44 43 41 45 46 47 50 49 52 52
38 37 35 35 34 36 38 31 27 25 24 22 28 26 24 19 17 22 25 27 27 29 29 22 32 46 49 54 55 68 60 42 44 43 45 47 48 50 52 55 55 58 55
40 38 36 35 35 36 34 28 28 28 29 26 24 22 21 20 22 24 26 27 27 28 29 29 28 25 30 36 39 40 36 41 40 47 53 55 55 55 55 55 54 54 53
39 43 41 37 37 36 34 30 29 31 26 26 25 26 24 25 27 31 31 34 35 35 35 35 34 36 38 40 43 44 47 51 54 56 56 56 56 57 57 57 57 55 53
43 44 45 43 38 36 33 31 29 28 30 32 30 32 31 29 30 30 32 35 37 40 39 38 39 40 42 43 46 49 52 54 55 56 58 57 58 57 57 57 57 56 55
45 45 46 46 40 36 35 33 32 35 37 35 34 35 38 37 37 34 36 40 39 39 39 41 42 42 44 46 48 49 50 50 51 52 54 55 56 56 57 57 58 60 61
38 42 43 40 37 38 38 38 38 36 38 38 38 37 38 39 39 38 39 40 40 41 41 42 43 45 46 48 50 51 52 55 57 58 58 59 59 60 60 59 60 59 58
38 38 40 40 40 39 40 39 37 36 36 37 38 39 40 42 42 42 43 45 47 48 48 49 50 51 53 55 57 57 58 59 59 62 62 60 60 60 57 57 57 58 59
31 34 35 35 39 39 40 40 39 39 40 42 43 44 44 46 47 48 49 50 52 53 55 57 58 59 61 62 59 59 58 58 57 58 58 57 56 56 55 54 53 50 49
30 30 32 35 35 35 37 39 42 43 45 47 49 49 49 48 49 50 50 52 52 51 53 54 56 58 59 58 56 56 59 56 54 52 52 52 50 50 51 51 51 51 49
32 33 33 35 37 39 40 43 44 47 49 49 49 49 49 48 48 47 48 47 45 45 46 45 45 45 46 47 47 47 48 49 50 52 53 52 54 54 54 53 51 51 51
32 33 35 38 40 41 42 43 43 44 44 45 45 44 45 45 46 48 48 47 47 46 46 45 46 47 47 49 50 51 54 57 58 60 60 59 59 59 58 58 55 53 50
33 35 36 36 37 37 36 36 38 40 41 43 45 46 47 47 45 44 45 45 45 46 47 46 48 50 52 54 56 59 61 62 62 61 60 59 59 58 55 53 53 53 50
34 34 31 28 32 34 36 38 41 43 45 47 48 49 48 48 48 47 48 47 47 47 49 50 50 53 53 50 47 47 49 50 51 51 50 50 51 51 49 48 46 46 48
30 30 30 29 31 34 37 38 39 41 42 45 48 47 47 42 38 38 36 35 39 44 45 43 41 42 44 45 43 40 39 40 42 41 42 46 45 43 43 42 43 41 40
24 27 29 31 34 35 34 35 32 33 38 42 37 36 36 36 35 33 33 33 36 39 39 40 39 36 33 33 34 34 33 34 35 30 29 29 21 29 33 35 37 37 35
25 29 30 29 30 32 31 26 28 31 32 31 32 27 19 20 23 25 27 29 31 32 31 30 31 30 29 30 30 27 27 27 26 26 26 22 20 21 26 31 30 32 34
25 23 25 26 27 25 21 22 26 27 28 27 26 23 26 21 20 22 24 21 17 19 22 25 26 26 26 27 29 28 28 27 27 27 25 25 24 24 26 28 30 30 31
22 21 21 22 22 18 18 20 22 23 24 22 21 21 21 20 18 16 16 18 21 23 24 26 26 27 26 24 24 24 25 25 24 24 24 25 27 26 25 24 25 26 26
Wind_Direction
298 291 287 276 261 256 251 252 253 254 260 266 262 267 269 273 273 271 278 282 281 277 278 269 263 257 252 257 257 272 271 274 277 285 293 302 304 310 308 311 307 291 281
315 304 295 299 268 256 256 250 245 243 241 248 253 246 251 259 261 267 268 274 271 271 269 265 265 269 251 255 257 262 268 273 281 282 287 287 290 299 305 308 306 294 277
302 305 307 283 293 256 254 244 244 243 240 238 245 252 258 257 262 260 275 273 270 276 272 259 258 265 274 268 264 264 272 274 276 277 280 278 274 279 290 300 308 291 283
298 306 309 296 303 269 232 243 236 244 246 244 247 256 257 262 261 275 270 275 288 272 261 261 257 260 266 265 264 265 270 269 274 275 270 268 278 284 287 292 292 288 283
300 308 310 307 308 247 211 237 235 243 241 245 244 244 246 252 258 260 264 269 275 269 271 258 255 253 255 259 261 262 263 265 269 272 275 275 276 278 280 279 281 281 282
299 302 304 309 313 324 313 310 285 258 240 245 245 233 250 263 259 258 262 258 269 273 273 267 266 255 253 254 256 259 267 267 268 267 271 273 274 276 278 280 281 281 281
292 294 300 305 316 323 328 327 300 313 306 269 295 290 264 269 260 254 267 265 263 272 283 272 272 262 254 254 258 263 266 271 266 272 272 274 277 275 278 283 286 286 288
294 298 296 303 315 321 311 304 312 321 315 279 281 279 275 280 266 260 262 261 265 269 297 264 264 269 265 254 255 257 260 263 264 268 272 279 281 282 282 282 283 281 282
292 293 293 299 301 306 310 293 300 308 305 279 275 271 269 278 280 261 259 261 271 284 290 273 272 273 268 262 255 262 260 259 264 274 282 282 281 283 284 283 284 282 282
289 289 292 296 298 302 311 287 301 290 295 278 270 285 282 280 273 265 264 269 270 277 282 283 283 296 261 266 264 256 271 273 270 280 283 285 284 283 282 283 284 285 287
283 287 290 291 294 294 295 295 296 297 291 296 284 283 281 278 274 268 267 268 272 279 279 278 276 273 268 265 268 272 272 275 279 280 280 282 284 285 286 287 286 286 285
281 283 289 293 290 288 293 294 292 294 291 291 283 277 278 281 279 278 276 275 276 278 276 275 274 273 271 271 271 271 270 271 272 274 276 278 279 279 281 281 282 282 282
282 285 289 290 287 287 289 286 285 288 288 285 282 278 277 275 272 279 282 279 278 277 275 274 274 274 274 274 274 275 276 278 278 276 277 277 279 280 281 282 283 285 285
281 287 285 282 284 287 288 288 288 287 284 284 283 283 281 279 279 280 281 281 280 280 281 281 280 280 278 277 277 278 280 280 279 280 281 282 283 283 283 282 282 280 280
283 280 273 275 279 283 285 284 283 281 280 281 282 283 283 282 280 278 278 276 276 278 280 281 281 281 280 281 282 284 284 285 285 284 284 285 284 284 282 281 282 281 279
279 288 290 282 279 280 280 282 285 285 285 285 285 284 282 283 282 280 279 278 277 275 276 278 282 282 281 282 286 286 286 285 285 284 282 281 280 279 278 279 279 280 279
281 280 281 280 278 279 281 284 286 287 288 289 290 291 290 288 287 287 287 285 285 285 283 282 282 282 282 282 281 280 280 282 281 279 281 280 280 279 278 278 277 276 276
275 277 278 280 284 286 288 290 289 291 292 291 291 292 293 293 292 292 290 289 289 287 285 285 283 282 282 282 281 279 279 279 280 279 279 280 281 281 280 279 277 276 273
279 281 284 287 290 290 292 293 294 295 295 295 295 294 292 291 291 291 291 291 290 290 289 288 288 286 285 285 284 282 283 282 282 282 281 280 279 278 276 272 269 268 270
284 288 291 292 292 293 293 293 292 292 293 293 292 291 290 289 286 284 283 283 283 283 283 283 282 283 284 284 283 283 284 286 286 284 281 278 274 272 270 267 264 262 263
290 289 290 289 293 296 296 296 296 296 295 293 291 288 285 283 282 282 284 282 282 282 283 285 285 284 287 290 289 288 287 287 285 283 282 278 274 269 265 264 262 265 267
288 291 296 294 293 294 297 299 300 301 303 301 297 291 287 284 280 278 280 283 285 284 284 286 287 288 291 292 293 293 292 291 289 289 288 283 275 267 260 258 258 260 267
295 295 293 296 299 301 304 305 310 315 319 318 308 295 290 290 286 280 283 289 293 296 294 294 295 295 294 295 296 298 295 295 295 295 304 297 287 279 264 260 258 259 267
295 296 301 303 303 303 306 311 317 320 321 325 327 330 319 301 291 282 293 299 303 303 305 308 307 304 302 298 296 291 298 295 299 293 294 298 300 284 267 265 264 263 264
294 300 303 304 308 307 304 314 318 321 325 326 328 329 318 318 309 305 308 314 320 328 336 339 335 324 310 299 295 294 297 301 295 294 300 298 294 284 274 270 268 266 265
307 308 311 317 319 318 319 321 323 321 324 322 326 329 328 332 334 334 329 325 324 324 328 331 334 336 338 328 316 309 304 299 304 302 297 296 294 292 289 282 274 267 260